Location: Newark
(45.1000°N, 8.5833°E)
Time: 17:07:48
(UTC+00:00)

ISS - Pass Details

Date: 21 September 2019
Orbit: 411 x 421 km, 51.6° (Epoch: 20 October)

Event Time Altitude Azimuth Distance (km) Brightness Sun altitude
Rises 18:29:44 0° 227° (SW) 2,333 0.5 -12.0°
Reaches altitude 10° 18:31:50 10° 223° (SW) 1,474 -0.6 -12.3°
Maximum altitude 18:35:04 55° 145° (SE) 503 -3.7 -12.9°
Enters shadow 18:37:02 21° 74° (ENE) 979 -2.4 -13.2°
